Regional Weather Roundup
Issued by NWS

Home | Current Version | Previous Version | Text Only | Print | Product List | Glossary Off
Versions: 1 2 3 4 5 6 7 8 9 10 11 12 13 14 15 16 17 18 19 20 21 22 23 24 25 26 27 28 29 30 31 32 33 34 35 36 37 38 39 40 41 42 43 44 45 46 47 48 49 50

000
ASUS44 KMEG 220310
RWRTN
TENNESSEE HOURLY STATE WEATHER ROUNDUP
NATIONAL WEATHER SERVICE MEMPHIS TN
1000 PM CDT SAT APR 21 2018

TNZ002-004-019-021-049-052-054-088>092-220400-
WEST TENNESSEE

CITY           SKY/WX    TMP DP  RH WIND       PRES   REMARKS
MEMPHIS INTL   CLOUDY    69  49  48 E13       30.06F
NWS MEMPHIS      N/A     67 N/A N/A MISG        N/A
JACKSON        FAIR      68  41  37 E3        30.13R
DYERSBURG      MOCLDY    67  42  40 E6        30.12F
SOMERVILLE       N/A     63  48  59 CALM      30.11S
COVINGTON      CLOUDY    63  52  67 E6        30.11F
UNION CITY     CLEAR     66  37  34 CALM      30.13R
BOLIVAR        MOCLDY    64  45  48 NE3       30.12F
PARIS          PTCLDY    66  34  30 E6        30.14F
HUNTINGDON     MOCLDY    66  37  34 E7        30.12F
LEXINGTON      MOCLDY    64  41  42 E5        30.13F
SELMER         CLEAR     66  43  42 E3        30.13S
SAVANNAH       PTCLDY    66  45  45 E8        30.13F
$$

TNZ008-025-027-028-033-062-065-066-220400-
NORTH MIDDLE TENNESSEE

CITY           SKY/WX    TMP DP  RH WIND       PRES   REMARKS
NASHVILLE      MOCLDY    60  38  43 CALM      30.21R
PORTLAND       CLEAR     61  36  39 CALM      30.22R
CLARKSVILLE    FAIR      59  38  45 E7        30.20S
SMYRNA         FAIR      56  43  61 CALM      30.22R
COOKEVILLE     CLEAR     46  41  81 CALM      30.23R
LIVINGSTON     CLEAR     57  36  44 CALM      30.23R
GALLATIN       CLEAR     57  41  54 CALM      30.24S
CROSSVILLE     FAIR      57  31  37 S5        30.26S
ROCKWOOD       CLEAR     59  32  36 S5        30.25S
$$

TNZ061-075-076-078-094-096-097-220400-
SOUTH MIDDLE TENNESSEE

CITY           SKY/WX    TMP DP  RH WIND       PRES   REMARKS
LEWISBURG      CLOUDY    57  46  67 CALM      30.19S
FAYETTEVILLE   CLOUDY    64  45  48 E5        30.19S
TULLAHOMA      CLOUDY    64  37  36 E6        30.21S
WINCHESTER     CLOUDY    61  41  48 E5        30.22R
MCMINNVILLE    PTCLDY    54  37  54 CALM      30.23R
COLUMBIA       CLOUDY    59  48  67 CALM      30.18S
SHELBYVILLE    CLOUDY    55  46  71 E5        30.20S
$$

TNZ017-018-042-046-047-220400-
NORTHEAST TENNESSEE

CITY           SKY/WX    TMP DP  RH WIND       PRES   REMARKS
TRI CITIES     MOCLDY    55  36  48 CALM      30.28R
ELIZABETHTON   FAIR      55  34  44 CALM      30.29R
$$

TNZ012-013-036-069-073-074-220400-
CENTRAL EAST TENNESSEE

CITY           SKY/WX    TMP DP  RH WIND       PRES   REMARKS
KNOXVILLE      MOCLDY    56  40  55 S3        30.24R
OAK RIDGE      FAIR      55  41  59 CALM      30.25S
DOWNTOWN KNOXV CLEAR     52  46  82 CALM      30.25S
GATLINBURG     CLEAR     54  39  58 CALM      30.25S
MORRISTOWN     PTCLDY    57  36  44 CALM      30.25R
JACKSBORO      CLEAR     52  41  66 CALM      30.28S
$$

TNZ083-085-099-220400-
SOUTHEAST TENNESSEE

CITY           SKY/WX    TMP DP  RH WIND       PRES   REMARKS
CHATTANOOGA    MOCLDY    64  37  36 S5        30.24S
DAYTON         CLEAR     54  48  82 CALM      30.23S
$$

SKY/WX REPORTED AS FAIR MEANS FEW OR NO CLOUDS BELOW
12 THOUSAND FEET.





USA.gov is the U.S. government's official web portal to all federal, state and local government web resources and services.